Regional Weather Roundup
Issued by NWS

Home | Current Version | Previous Version | Text Only | Print | Product List | Glossary Off
Versions: 1 2 3 4 5 6 7 8 9 10 11 12 13 14 15 16 17 18 19 20 21 22 23 24 25 26 27 28 29 30 31 32 33 34 35 36 37 38 39 40 41 42 43 44 45 46 47 48 49 50

000
ASUS43 KLMK 301802
RWRKY
KENTUCKY REGIONAL WEATHER ROUNDUP
NATIONAL WEATHER SERVICE LOUISVILLE KY
200 PM EDT SUN AUG 30 2015

NOTE "FAIR" INDICATES FEW OR NO CLOUDS BELOW 12,000 FEET
WITH NO SIGNIFICANT WEATHER AND/OR OBSTRUCTIONS TO VISIBILITY.

KYZ001>023-026-027-061>063-070>075-301900-
WESTERN AND SOUTH CENTRAL KENTUCKY

CITY           SKY/WX    TMP DP  RH WIND       PRES   REMARKS
PADUCAH        CLOUDY    82  71  69 VRB3      30.07F
HENDERSON      PTSUNNY   82  70  65 S6        30.07S
OWENSBORO      PTSUNNY   85  71  62 S9        30.10F HX  90
HOPKINSVILLE   PTSUNNY   83  69  62 VRB7      30.10F
BOWLING GREEN  CLOUDY    83  66  56 SE7       30.12F
GLASGOW        NOT AVBL
$$

KYZ024-025-028>034-038-045-046-053-301900-
NORTH CENTRAL KENTUCKY

CITY           SKY/WX    TMP DP  RH WIND       PRES   REMARKS
LOUISVILLE/SDF PTSUNNY   84  68  58 SW7       30.09F
LOUISVILLE/LOU PTSUNNY   83  67  58 SW5       30.10F
FORT KNOX      PTSUNNY   81  69  67 VRB2      30.10F
$$

KYZ035>037-039>044-047>052-055>060-089>105-301900-
NORTHEAST KENTUCKY

CITY           SKY/WX    TMP DP  RH WIND       PRES   REMARKS
LEXINGTON      PTSUNNY   84  67  56 S13       30.13F
COVINGTON      PTSUNNY   83  70  64 SW7       30.10F
FRANKFORT      PTSUNNY   84  66  54 MISG      30.10F
$$

KYZ054-064>069-076>088-106>120-301900-
SOUTHEAST KENTUCKY

CITY           SKY/WX    TMP DP  RH WIND       PRES   REMARKS
JACKSON        PTSUNNY   80  64  58 CALM      30.18F
LONDON         CLOUDY    80  59  48 SW5       30.17F
SOMERSET       NOT AVBL
MIDDLESBORO    CLOUDY    77  66  69 CALM      30.18F
MONTICELLO     CLOUDY    81  66  60 S9        30.19F
$$




USA.gov is the U.S. government's official web portal to all federal, state and local government web resources and services.